Hastings, NE

4:25 AM CST on February 21, 2017 (GMT -0600)
Hastings Municipal

Weather History for KHSI - November, 2013

Change the Weather History Date:

Tuesday, November 26, 2013

  Actual Average Record
Temperature  
Mean Temperature 22 °F 34 °F  
Max Temperature 34 °F 44 °F 74 °F (1960)
Min Temperature 10 °F 24 °F 1 °F (1975)
Degree Days  
Heating Degree Days 43 31  
Month to date heating degree days 685 658  
Since 1 July heating degree days 1133 1151  
Cooling Degree Days 0 0  
Month to date cooling degree days 0 0  
Year to date cooling degree days 1158 1077  
Moisture  
Dew Point 12 °F    
Average Humidity 53    
Maximum Humidity 81    
Minimum Humidity 25    
Precipitation  
Precipitation 0.00 in 0.03 in 0.65 in (1944)
Month to date precipitation 1.00 1.19  
Year to date precipitation 25.07 26.40  
Snow  
Snow 0.00 in 0.20 in 4.00 in (1944)
Month to date snowfall 0.4 2.1  
Since 1 July snowfall 0.4 3.3  
Since 1 September snowfall 0.4 3.3  
Snow Depth 0.00 in    
Sea Level Pressure  
Sea Level Pressure 30.41 in    
Wind  
Wind Speed 12 mph (NNW)    
Max Wind Speed 26 mph    
Max Gust Speed 32 mph    
Visibility 10 miles    
Events      
T = Trace of Precipitation, MM = Missing Value Source: NWS Daily Summary

Daily Weather History Graph

Daily Weather History Graph

Search for Another Location

Airport or City:

Trip Planner

Search our weather history database for the weather conditions in past years. The results will help you decide how hot, cold, wet, or windy it might be!

Date:

Astronomy

Nov. 26, 2013 Rise Set
Actual Time 7:33 AM CST 5:08 PM CST
Civil Twilight 7:03 AM CST 5:38 PM CST
Nautical Twilight 6:29 AM CST 6:12 PM CST
Astronomical Twilight 5:56 AM CST 6:45 PM CST
Moon 12:36 AM CST (11/26) 1:18 PM CST (11/26)
Length of Visible Light 10h 35m
Length of Day
9h 35m
Last Quarter, 41% of the Moon is Illuminated
Nov 26
Last Quarter
Dec 2
New
Dec 9
First Quarter
Dec 17
Full
Dec 25
Last Quarter

Hourly Weather History & Observations

Time (CST) Temp. Windchill Dew Point Humidity Pressure Visibility Wind Dir Wind Speed Gust Speed Precip Events Conditions
12:53 AM 24.1 °F 15.2 °F 18.0 °F 77% 30.28 in 10.0 mi WNW 8.1 mph - N/A   Clear
1:53 AM 24.1 °F 16.0 °F 18.0 °F 77% 30.28 in 10.0 mi WNW 6.9 mph - N/A   Clear
2:53 AM 23.0 °F 13.1 °F 18.0 °F 81% 30.28 in 10.0 mi NW 9.2 mph - N/A   Clear
3:53 AM 23.0 °F 12.4 °F 18.0 °F 81% 30.28 in 10.0 mi NW 10.4 mph - N/A   Clear
4:53 AM 24.1 °F 12.5 °F 18.0 °F 77% 30.31 in 10.0 mi NW 12.7 mph - N/A   Clear
5:53 AM 23.0 °F 11.1 °F 17.1 °F 78% 30.34 in 10.0 mi NW 12.7 mph - N/A   Partly Cloudy
6:53 AM 23.0 °F 11.7 °F 18.0 °F 81% 30.37 in 10.0 mi NNW 11.5 mph - N/A   Clear
7:53 AM 23.0 °F 11.7 °F 18.0 °F 81% 30.40 in 10.0 mi NNW 11.5 mph - N/A   Partly Cloudy
8:10 AM 24.8 °F 15.3 °F 19.4 °F 80% 30.33 in 10.0 mi NNW 9.2 mph - N/A   Mostly Cloudy
8:53 AM 27.0 °F 16.1 °F 21.0 °F 78% 30.43 in 10.0 mi NNW 12.7 mph - N/A   Overcast
9:53 AM 30.0 °F 17.2 °F 21.0 °F 69% 30.44 in 10.0 mi North 20.7 mph 26.5 mph N/A   Overcast
10:34 AM 32.0 °F 19.2 °F 17.6 °F 55% 30.39 in 10.0 mi North 23.0 mph 29.9 mph N/A   Partly Cloudy
10:53 AM 32.0 °F 19.2 °F 17.1 °F 54% 30.46 in 10.0 mi North 23.0 mph 27.6 mph N/A   Partly Cloudy
11:53 AM 33.1 °F 21.2 °F 9.0 °F 37% 30.46 in 10.0 mi NNE 20.7 mph 29.9 mph N/A   Clear
12:53 PM 34.0 °F 22.4 °F 12.0 °F 40% 30.44 in 10.0 mi NNW 20.7 mph 27.6 mph N/A   Clear
1:53 PM 34.0 °F 23.0 °F 9.0 °F 35% 30.43 in 10.0 mi NNW 18.4 mph 27.6 mph N/A   Clear
2:53 PM 33.1 °F 20.6 °F 1.0 °F 26% 30.42 in 10.0 mi North 23.0 mph 32.2 mph N/A   Clear
3:53 PM 32.0 °F 21.2 °F 3.9 °F 31% 30.43 in 10.0 mi North 16.1 mph 25.3 mph N/A   Clear
4:53 PM 28.0 °F 18.1 °F 3.0 °F 34% 30.44 in 10.0 mi North 11.5 mph - N/A   Clear
5:53 PM 21.0 °F 12.4 °F 3.9 °F 48% 30.47 in 10.0 mi NNW 6.9 mph - N/A   Clear
6:53 PM 19.0 °F 12.3 °F 3.9 °F 52% 30.48 in 10.0 mi NNW 4.6 mph - N/A   Clear
7:53 PM 17.1 °F 10.0 °F 3.9 °F 56% 30.49 in 10.0 mi North 4.6 mph - N/A   Clear
8:53 PM 15.1 °F 7.7 °F 3.9 °F 61% 30.50 in 10.0 mi NNW 4.6 mph - N/A   Clear
9:53 PM 10.9 °F 1.4 °F 3.0 °F 70% 30.50 in 10.0 mi NNW 5.8 mph - N/A   Clear
10:53 PM 10.0 °F 3.6 °F 1.9 °F 70% 30.49 in 10.0 mi NNW 3.5 mph - N/A   Clear
11:53 PM 12.9 °F 5.2 °F 3.9 °F 67% 30.50 in 10.0 mi West 4.6 mph - N/A   Clear